Simultaneous Nadir Overpasses (SNOs) Predictions

Prediction of SNOs between LANDSAT-8 and NPP Satellite Orbit:

Table of predicted SNOs for the next 14.0 days since TLE Epoch: 7/26/2018
Index Date (LANDSAT-8) Time (LANDSAT-8) Lat,Lon (LANDSAT-8) SZA (LANDSAT-8 ) Date (NPP) Time (NPP) Lat,Lon (NPP) SZA (NPP ) Distance(km) Time Diff (sec)
1 07/28/2018 06:08:11 -70.21, -95.57 128.78 07/28/2018 06:06:57 -70.22, -95.58 128.76 1.45 74
2 07/28/2018 06:57:38 70.11, 71.93 51.14 07/28/2018 06:57:41 70.10, 71.91 51.13 1.19 3
3 07/28/2018 07:47:09 -69.94,-120.68 129.02 07/28/2018 07:48:22 -69.96,-120.55 129.01 5.14 73
4 07/30/2018 22:24:42 -70.15, 20.22 128.20 07/30/2018 22:23:53 -70.16, 20.29 128.19 2.45 49
5 07/30/2018 23:14:09 70.05,-172.28 51.71 07/30/2018 23:14:37 70.04,-172.23 51.70 2.03 28
6 08/02/2018 13:51:29 70.91, -30.40 53.19 08/02/2018 13:50:21 70.98, -32.59 53.35 80.05 68
7 08/02/2018 14:41:11 -70.14, 136.10 127.54 08/02/2018 14:40:49 -70.15, 136.07 127.53 1.02 22
8 08/02/2018 15:30:38 70.04, -56.41 52.38 08/02/2018 15:31:33 70.04, -56.45 52.37 1.63 55
9 08/05/2018 06:08:12 70.18, 84.40 53.20 08/05/2018 06:07:03 70.19, 84.46 53.21 2.10 69
10 08/05/2018 06:57:42 -70.08,-108.12 126.89 08/05/2018 06:57:45 -70.09,-108.07 126.89 1.91 3
11 08/05/2018 07:47:13 69.75, 59.07 52.81 08/05/2018 07:48:24 69.71, 59.80 52.74 28.42 71
12 08/07/2018 22:24:42 70.17,-159.74 53.92 08/07/2018 22:24:00 70.18,-159.77 53.95 2.26 42
13 08/07/2018 23:14:12 -70.06, 7.75 126.17 08/07/2018 23:14:42 -70.08, 7.71 126.16 2.07 30




NCC Satellite Simultaneous Nadir Overpasses (SNOs) Prediction Service
